Regional Weather Roundup
Issued by NWS State College, PA

Home | Current Version | Previous Version | Text Only | Print | Product List | Glossary On
Versions: 1 2 3 4 5 6 7 8 9 10 11 12 13 14 15 16 17 18 19 20 21 22 23 24 25 26 27 28 29 30 31 32 33 34 35 36 37 38 39 40 41 42 43 44 45 46 47 48 49 50
549
ASUS41 KCTP 270303
RWRCTP

REGIONAL WEATHER ROUNDUP
NATIONAL WEATHER SERVICE STATE COLLEGE PA
1100 PM EDT MON SEP 26 2016

Note: "fair" indicates few or no clouds below 12,000 feet with no
significant weather and/or obstructions to visibility.

* = STATION THAT DOES NOT REPORT PRECIPITATION /E.G. RAIN...SNOW...ETC/
    THUNDER OR FOG.

PAZ002>004-007>009-013>016-020>023-029>032-270400-
WESTERN PENNSYLVANIA

CITY           SKY/WX    TMP DP  RH WIND       PRES   REMARKS
ERIE           CLEAR     59  54  83 S9        29.93F
MEADVILLE      CLEAR     54  52  93 SW6       29.98F
FRANKLIN*        N/A     55  52  88 W7        30.00S
NEW CASTLE     FAIR      55  54  96 S3        30.00F
BEAVER COUNTY  NOT AVBL
BUTLER*        CLOUDY    55  54  94 SW3       30.02S
PITTSBURGH INT CLOUDY    58  56  93 W3        30.00S
PITTSBURGH     PTCLDY    60  55  83 W8        30.00R
INDIANA*       CLOUDY    63  61  94 W8        30.02R
LATROBE        CLOUDY    63  59  88 SW7       30.01S
WASHINGTON CO* PTCLDY    57  54  88 W3        30.03R
$$

PAZ004>006-010>012-017>019-024>028-033>037-041-042-045-046-049>053-270400-
CENTRAL PENNSYLVANIA

CITY           SKY/WX    TMP DP  RH WIND       PRES   REMARKS
BRADFORD       CLOUDY    56  55  97 W8        29.97S
DUBOIS         FOG       57  55  93 SW5       29.98S VSB 1
CLEARFIELD     CLOUDY    60  58  92 W6        29.98S
JOHNSTOWN      MOCLDY    59  57  93 W6        30.00S
ALTOONA        CLOUDY    61  61 100 SW3       29.98S
STATE COLLEGE  CLOUDY    60  60  98 CALM      29.96F
WILLIAMSPORT   LGT RAIN  63  61  93 VRB6      29.94F
SELINSGROVE    RAIN      61  61 100 S5        29.96F FOG
FT INDIANTOWN  CLOUDY    60  60 100 N3        29.97F
CAPITAL CITY   CLOUDY    66  58  75 VRB5      29.96F
HARRISBURG     CLOUDY    66  60  81 S7        29.95F
YORK           CLOUDY    65  59  81 S3        29.96F
$$

PAZ038>040-043-044-047-048-054-055-060>062-067>071-270400-
EASTERN PENNSYLVANIA

CITY           SKY/WX    TMP DP  RH WIND       PRES   REMARKS
SCRANTON       CLOUDY    63  53  70 SW8       29.98S
MOUNT POCONO   CLOUDY    58  50  75 S6        30.01F
ALLENTOWN      CLOUDY    67  53  61 SE3       29.99F
QUAKERTOWN*    CLOUDY    66  55  68 S6        30.00F
READING        CLOUDY    66  53  63 SE5       29.96F
LANCASTER      CLOUDY    66  58  75 S5        29.98S
COATESVILLE    CLOUDY    64  55  72 VRB5      30.00S
POTTSTOWN      CLOUDY    65  57  75 CALM      30.00F
BLUE BELL      CLOUDY    64  55  72 S5        29.99F
DOYLESTOWN     CLOUDY    66  58  75 S5        29.99F
WILLOW GROVE   NOT AVBL
NORTH PHILA    CLOUDY    68  58  70 SE6       30.01F
PHILADELPHIA   CLOUDY    69  58  67 S9        30.00F
$$




USA.gov is the U.S. government's official web portal to all federal, state and local government web resources and services.